Regional Weather Roundup
Issued by NWS

Home | Current Version | Previous Version | Text Only | Print | Product List | Glossary Off
Versions: 1 2 3 4 5 6 7 8 9 10 11 12 13 14 15 16 17 18 19 20 21 22 23 24 25 26 27 28 29 30 31 32 33 34 35 36 37 38 39 40 41 42 43 44 45 46 47 48 49 50

000
ASUS45 KTFX 251610
RWRMT
MONTANA REGIONAL WEATHER ROUNDUP
NATIONAL WEATHER SERVICE GREAT FALLS MT
1000 AM MDT THU MAY 25 2017

NOTE: "FAIR" INDICATES FEW OR NO CLOUDS BELOW 12000 FEET WITH NO
SIGNIFICANT WEATHER AND/OR OBSTRUCTIONS TO VISIBILITY.

MTZ001>007-043-251700-
WEST OF THE DIVIDE

CITY           SKY/WX    TMP DP  RH WIND       PRES   REMARKS
KALISPELL      PTSUNNY   50  40  68 CALM      29.80S
MISSOULA       MOSUNNY   54  33  45 SW3       29.81S
BUTTE          CLOUDY    43  29  57 N9        29.81R
MULLAN PASS    CLOUDY    42  29  59 CALM      29.81R
ANACONDA         N/A     43  32  65 N6        29.82R
DEER LODGE       N/A     43  36  75 E5        29.85R
EUREKA           N/A     52  36  54 NW5       29.81S
HAMILTON         N/A     52  30  43 NW5       29.81R
PLAINS           N/A     55  37  50 CALM      29.82
RONAN            N/A     55  34  45 SW1       29.87R
$$

MTZ008-052>055-251700-
SOUTHWEST MONTANA

CITY           SKY/WX    TMP DP  RH WIND       PRES   REMARKS
BOZEMAN        CLOUDY    41  36  82 SW8       29.81R
DILLON         CLOUDY    46  23  40 CALM      29.80R
W YELLOWSTONE  CLOUDY    39  16  38 CALM      29.78S
ENNIS          PTSUNNY   41  32  70 NE8       29.85R
THREE FORKS      N/A     46  36  68 N8        29.81R
TWIN BRIDGES     N/A     45  27  49 CALM      29.82R
$$

MTZ009-010-012-014-046-048-049-054-251700-
EAST SLOPES AND CENTRAL MONTANA

CITY           SKY/WX    TMP DP  RH WIND       PRES   REMARKS
CUT BANK       MOSUNNY   51  36  56 N36G48    29.69R
GREAT FALLS    CLOUDY    50  37  61 NW23G35   29.70R
MALMSTROM AFB  CLOUDY    50  38  62 NW20G30   29.71R
HELENA         CLOUDY    49  35  58 W12       29.77S
CHOTEAU          N/A     54  34  47 N30G43    29.74R
CONRAD           N/A     53  46  77 W28       29.74R
$$

MTZ011-013-016-021-045-047-050-051-251700-
NORTH CENTRAL MONTANA

CITY           SKY/WX    TMP DP  RH WIND       PRES   REMARKS
HAVRE          CLOUDY    50  42  74 NW23G35   29.54R
LEWISTOWN      LGT RAIN  43  40  89 NW18G31   29.61R
N BAR RANCH    LGT RAIN  45  41  87 NW25G38   29.59R
CHINOOK          N/A     52  43  71 W23G36    29.47R
FORT BENTON      N/A     52  37  58 CALM      29.63R
$$

MTZ017>020-022>027-061-062-251700-
NORTHEAST MONTANA

CITY           SKY/WX    TMP DP  RH WIND       PRES   REMARKS
GLASGOW        CLOUDY    56  43  61 W26       29.36R
JORDAN           N/A     52  42  69 W22G31    29.45R
SIDNEY         CLOUDY    54  42  64 SW21G29   29.39
WOLF POINT     CLOUDY    55  46  71 W16G23    29.35R
MALTA          CLOUDY    54  43  66 NW25G35   29.41R
PLENTYWOOD       N/A     55  46  71 W23       29.28S
POPLAR           N/A     55  45  67 W21G29    29.35R
SCOBEY           N/A     56  35  45 W21       29.32
$$

MTZ028>42-056>058-251700-
SOUTHCENTRAL AND SOUTHEAST MONTANA

CITY           SKY/WX    TMP DP  RH WIND       PRES   REMARKS
BAKER          SUNNY     57  35  43 W30G37    29.47F
BILLINGS       CLOUDY    48  36  63 W21G32    29.63R
LIVINGSTON     CLOUDY    42  36  79 W22G31    29.74R
MILES CITY     MOSUNNY   59  37  44 W29G38    29.49R
BIG TIMBER     CLOUDY    43  36  75 W35       29.72R
EKALAKA          N/A     54  34  46 W12       29.54S
FORSYTH          N/A     55  36  47 W17G33    29.51R
LAUREL           N/A     48  32  54 W17       29.68R
ROUNDUP          N/A     51  37  58 W18       29.54R
$$

REGIONAL REPORTS...DAKOTAS

CITY           SKY/WX    TMP DP  RH WIND       PRES   REMARKS
WILLISTON      CLOUDY    57  42  57 SW15G26   29.36S
MINOT          SUNNY     65  41  41 SW14      29.36S
DICKINSON      CLOUDY    59  32  36 W23G35    29.41F
BEACH            N/A     57  39  51 W26       29.47R
TIOGA            N/A     55  52  88 SW26G36   29.34F
WATFORD CITY     N/A     57  43  58 W24G35    29.38S
BISMARCK       PTSUNNY   62  49  62 CALM      29.43S
GRAND FORKS    PTSUNNY   67  48  50 S26G37    29.52F
FARGO          CLOUDY    64  48  56 SE21G31   29.53F
BUFFALO SD       N/A     61  34  36 W18       29.43S
RAPID CITY     PTSUNNY   61  29  29 N15       29.53R
$$

REGIONAL REPORTS...WYOMING/IDAHO/WASHINGTON

CITY           SKY/WX    TMP DP  RH WIND       PRES   REMARKS
GILLETTE       CLOUDY    52  29  41 NW13      29.59R
SHERIDAN       SUNNY     57  32  38 NW23G31   29.59S
BUFFALO WY     MOSUNNY   56  28  34 N17G25    29.61R
CODY           CLOUDY    53  21  28 N16G23    29.67R
YELLOWSTONE LA   N/A     36  19  50 VRB3      29.80R
IDAHO FALLS    SUNNY     50  21  32 NW5       29.78R
SALMON         CLOUDY    48  21  34 N7        29.79S
BOISE          MOSUNNY   54  35  48 W13       29.77S
SPOKANE        CLOUDY    50  40  68 E3        29.82R
$$

REGIONAL REPORTS...ALBERTA

CITY           SKY/WX    TMP DP  RH WIND       PRES   REMARKS
EDMONTON       PTSUNNY   54  43  66 NW16G22   29.71S
CALGARY        PTSUNNY   52  36  54 N23G39    29.75R
LETHBRIDGE     MOSUNNY   54  37  54 NW24G41   29.70R
MEDICINE HAT   CLOUDY    50  41  71 NW31G44   29.52R
WATERTON GATE    N/A     50  32  50 N15G22      N/A
MILK RIVER       N/A     52  37  58 N40G51      N/A
ONEFOUR          N/A     46  39  76 NW35G48     N/A
$$

REGIONAL REPORTS...SASKATCHEWAN

CITY           SKY/WX    TMP DP  RH WIND       PRES   REMARKS
SWIFT CURRENT  LGT RAIN  45  43  93 N21G26    29.28R FOG
REGINA         LGT RAIN  48  46  93 SW6       29.20S
SASKATOON      PTSUNNY   55  48  76 N20       29.26R
VAL MARIE        N/A     52  39  62 NW29G39     N/A
ROCKGLEN         N/A     50  45  81 W25G32      N/A
ASSINIBOIA       N/A     54  39  58 N25G31      N/A
$$



USA.gov is the U.S. government's official web portal to all federal, state and local government web resources and services.